DIRECTV 9S

Last updated on Thu Nov 21 2024 00:02:40 GMT+0000 (Coordinated Universal Time)

1 29494U 06043A 24325.40987654 -.00000111 00000+0 00000+0 0 9992 2 29494 0.9345 87.7918 0003361 159.6179 218.8661 1.00271297 45631
UTC large
Height (km)
Speed (km/s)
/
Latitude / Longitude
Inclination (degrees)
Orbital Period (minutes)
Azimuth
Elevation
Range (km)
Doppler Factor

Next 0 passes for location: London (51.5072 / 0.1276)

Sorry there are no passes over London.